Location: Bieujac
(44.5398°N, 0.1549°W)
Time: 13:07:09
(UTC+00:00)

NOAA 6 - Pass Details

Date: 17 November 2019
Orbit: 771 x 788 km, 98.6° (Epoch: 09 December)

Event Time Altitude Azimuth Distance (km) Brightness Sun altitude
Rises 05:47:48 0° 13° (NNE) 3,265 7.3 -12.7°
Reaches altitude 10° 05:50:08 10° 13° (NNE) 2,331 6.5 -12.3°
Maximum altitude 05:55:16 84° 286° (WNW) 783 4.0 -11.5°
Drops below altitude 10° 06:00:22 10° 198° (SSW) 2,309 6.5 -10.6°
Sets 06:02:40 0° 198° (SSW) 3,232 7.2 -10.2°
